Norfolk, NE

3:04 PM CDT on October 23, 2017 (GMT -0500)
Stefan Memorial

Weather History for KOFK - April, 2014

Change the Weather History Date:

Wednesday, April 2, 2014

  Actual Average Record
Temperature  
Mean Temperature 36 °F 44 °F  
Max Temperature 46 °F 56 °F 87 °F (1928)
Min Temperature 25 °F 32 °F 8 °F (1975)
Degree Days  
Heating Degree Days 29 21  
Month to date heating degree days 64 42  
Since 1 July heating degree days 6358 5991  
Cooling Degree Days 0 0  
Month to date cooling degree days 0 0  
Year to date cooling degree days 0 0  
Moisture  
Dew Point 29 °F    
Average Humidity 66    
Maximum Humidity 92    
Minimum Humidity 40    
Precipitation  
Precipitation T in 0.08 in 0.92 in (1984)
Month to date precipitation T 0.15  
Year to date precipitation 0.93 3.27  
Snow  
Snow 0.00 in 0.10 in - ()
Month to date snowfall 0.0 0.3  
Since 1 July snowfall 15.4 28.2  
Snow Depth 0.00 in    
Sea Level Pressure  
Sea Level Pressure 29.94 in    
Wind  
Wind Speed 11 mph (ENE)    
Max Wind Speed 22 mph    
Max Gust Speed 27 mph    
Visibility 8 miles    
Events      
T = Trace of Precipitation, MM = Missing Value Source: NWS Daily Summary

Daily Weather History Graph

Daily Weather History Graph

Search for Another Location

Airport or City:

Trip Planner

Search our weather history database for the weather conditions in past years. The results will help you decide how hot, cold, wet, or windy it might be!

Date:

Astronomy

Apr. 02, 2014 Rise Set
Actual Time 7:10 AM CDT 7:56 PM CDT
Civil Twilight 6:42 AM CDT 8:24 PM CDT
Nautical Twilight 6:09 AM CDT 8:58 PM CDT
Astronomical Twilight 5:34 AM CDT 9:33 PM CDT
Moon 8:53 AM CDT (4/2) 11:24 PM CDT (4/2)
Length of Visible Light 13h 42m
Length of Day
12h 45m
Waxing Crescent, 10% of the Moon is Illuminated
Apr 2
Waxing Crescent
Apr 7
First Quarter
Apr 15
Full
Apr 22
Last Quarter
Apr 29
New

Hourly Weather History & Observations

Time (CDT) Temp. Windchill Dew Point Humidity Pressure Visibility Wind Dir Wind Speed Gust Speed Precip Events Conditions
12:56 AM 25.0 °F 18.1 °F 16.0 °F 69% 30.13 in 10.0 mi NNE 5.8 mph - N/A   Clear
1:56 AM 26.1 °F 18.4 °F 18.0 °F 71% 30.11 in 10.0 mi NE 6.9 mph - N/A   Clear
2:56 AM 27.0 °F 21.6 °F 19.0 °F 72% 30.10 in 10.0 mi North 4.6 mph - N/A   Clear
3:56 AM 28.9 °F 22.8 °F 19.9 °F 69% 30.09 in 10.0 mi NE 5.8 mph - N/A   Clear
4:56 AM 28.9 °F 20.4 °F 21.0 °F 72% 30.06 in 10.0 mi ENE 9.2 mph - N/A   Clear
5:56 AM 30.0 °F 25.2 °F 21.9 °F 72% 30.05 in 10.0 mi ENE 4.6 mph - N/A   Mostly Cloudy
7:56 AM 30.0 °F 21.7 °F 23.0 °F 75% 30.06 in 10.0 mi East 9.2 mph - N/A   Clear
8:56 AM 32.0 °F 23.6 °F 24.1 °F 73% 30.05 in 10.0 mi East 10.4 mph - N/A   Clear
9:56 AM 36.0 °F 27.1 °F 25.0 °F 64% 30.03 in 10.0 mi ENE 13.8 mph - N/A   Mostly Cloudy
10:56 AM 41.0 °F 32.8 °F 25.0 °F 53% 30.02 in 10.0 mi East 16.1 mph - N/A   Clear
11:56 AM 45.0 °F 38.2 °F 24.1 °F 44% 29.99 in 10.0 mi ENE 15.0 mph 23.0 mph N/A   Partly Cloudy
12:56 PM 45.0 °F 37.9 °F 23.0 °F 42% 29.97 in 10.0 mi East 16.1 mph 23.0 mph N/A   Overcast
1:56 PM 44.1 °F 37.4 °F 21.9 °F 42% 29.94 in 10.0 mi East 13.8 mph - N/A   Overcast
2:56 PM 43.0 °F 35.7 °F 28.0 °F 56% 29.92 in 10.0 mi East 15.0 mph - 0.00 in   Overcast
3:27 PM 43.0 °F 36.0 °F 28.0 °F 56% 29.87 in 10.0 mi East 13.8 mph - N/A   Overcast
3:56 PM 43.0 °F 35.7 °F 30.0 °F 60% 29.91 in 10.0 mi East 15.0 mph - N/A   Overcast
4:04 PM 43.0 °F 35.4 °F 30.0 °F 60% 29.87 in 10.0 mi East 16.1 mph 24.2 mph N/A   Overcast
4:29 PM 43.0 °F 35.1 °F 32.0 °F 65% 29.86 in 10.0 mi East 17.3 mph 24.2 mph 0.00 in   Overcast
4:39 PM 42.1 °F 33.9 °F 32.0 °F 67% 29.87 in 10.0 mi ESE 17.3 mph - 0.00 in   Overcast
4:56 PM 42.1 °F 33.9 °F 32.0 °F 67% 29.90 in 10.0 mi East 17.3 mph 23.0 mph 0.00 in   Overcast
5:56 PM 42.1 °F 35.2 °F 33.1 °F 70% 29.90 in 10.0 mi East 12.7 mph - N/A   Overcast
6:56 PM 41.0 °F 34.7 °F 34.0 °F 76% 29.89 in 10.0 mi East 10.4 mph - N/A   Overcast
7:20 PM 41.0 °F 35.8 °F 35.1 °F 79% 29.86 in 10.0 mi East 8.1 mph - N/A   Overcast
7:56 PM 39.9 °F 34.5 °F 36.0 °F 86% 29.90 in 5.0 mi East 8.1 mph - N/A   Overcast
8:18 PM 39.0 °F 34.8 °F 37.0 °F 93% 29.87 in 2.5 mi East 5.8 mph - N/A   Overcast
8:44 PM 39.0 °F 33.4 °F 37.0 °F 93% 29.87 in 2.5 mi East 8.1 mph - N/A   Overcast
8:56 PM 39.0 °F 34.0 °F 37.0 °F 93% 29.92 in 3.0 mi East 6.9 mph - N/A   Overcast
9:07 PM 39.2 °F 33.0 °F 37.4 °F 93% 29.88 in 3.0 mi East 9.2 mph - N/A   Overcast
9:49 PM 39.0 °F 32.8 °F 37.0 °F 93% 29.85 in 2.5 mi ENE 9.2 mph - N/A   Overcast
9:56 PM 39.0 °F 33.4 °F 37.0 °F 93% 29.88 in 3.0 mi ENE 8.1 mph - N/A   Overcast
10:05 PM 39.0 °F 33.4 °F 37.9 °F 96% 29.84 in 2.5 mi NE 8.1 mph - N/A   Overcast
10:23 PM 39.0 °F 31.8 °F 37.0 °F 93% 29.83 in 3.0 mi NE 11.5 mph - N/A   Overcast
10:45 PM 39.0 °F 31.8 °F 37.0 °F 93% 29.83 in 2.5 mi ENE 11.5 mph - N/A   Overcast
10:56 PM 39.0 °F 31.4 °F 37.0 °F 93% 29.86 in 2.5 mi NE 12.7 mph - N/A   Overcast
11:56 PM 39.0 °F 32.3 °F 37.0 °F 93% 29.86 in 1.8 mi ENE 10.4 mph - N/A   Overcast